User: anonymous   Login
Location: Newark
(52.3500°N, 175.9667°E)
Time: 02:31:52
(UTC+00:00)
Language:

Transit 2A - Orbit

View from above orbital plane
View from above orbital plane
View from above satellite
View from above satellite

Ground track
Ground track

The orbit data is extracted from the following two-line orbital elements,

1 00045U 60007A   21110.52869838  .00000010  00000-0  29586-4 0  9991
2 00045  66.6937 291.6561 0247861  92.1318 270.8184 14.33716289109857
Epoch (UTC): 20 April 2021 12:41:19
Eccentricity: 0.0247861
inclination: 66.6937°
perigee height: 602 km
apogee height: 957 km
right ascension of ascending node: 291.6561°
argument of perigee: 92.1318°
revolutions per day: 14.33716289
mean anomaly at epoch: 270.8184°
orbit number at epoch: 10985

The dashed part of the orbit path shows where the satellite is in the earth's shadow,  

DLR